STARLINK-3055, 49137

Orbit data source: Space-Track

STARLINK-3055, 49137 is a payload satellite owned by SpaceX/Seattle (US) in LEO that was launched on Tue, 14 Sep 2021 UTC via an FALCON 9 launch vehicle from the Air Force Western Test Range (AFWTR). Payload-class satellites include a variety of spacecraft equipped with specific instruments for various scientific and technological missions. These include communications satellites like Starlink; space stations such as the ISS; scientific satellites like the Hubble; Earth observation satellites from companies like Planet Labs, Umbra, and HawkEye 360; GPS; miniature CubeSats for education and research; and military/defense satellites.

Loading next visibility...
Identifier
49137, 2021-082H
Orbit
LEO
Country
Flag of USUS
Related business
Manufacturer
SpaceX/Seattle
Mission
Operational Commercial Communications
Bus & Motor
STARLINK, Unknown motor
Mass
297 kg wet, ~275 kg dry
Launch date (UTC)
2021-09-14 (4 years ago)
Launch vehicle
FALCON 9
Launch site
Air Force Western Test Range (AFWTR)
Object type
Payload
Rocket body
Debris
Shape & HBR
Box + 1 Pan, 10.1 m
Radar Cross Section
13.562 m², Large (>1 m²)

Expand to show TLE details & history
Last TLE update: 11 hours ago

TLE from 11 hours ago
0 STARLINK-3055
1 49137U 21082H   25286.59586614  .00000019  00000-0  94902-5 0  9993
2 49137  69.9977 285.6473 0003312 273.4865  86.5915 14.97521892224439
Epoch: 2025-10-13T14:18Z
TLE epoch observation values (Epoch: 2025-10-13T14:18:02.834Z)
Latitude
-0°
Longitude
48.73911°
Altitude
576.843 km
Speed
7.573 km/s
True Right ascension
19h 02m 35s
True Declination
0° 00' 00"
Sunlit
Object was in daylight at epoch
Visualization orbit readout
Latitude
Unknown
Longitude
Unknown
Altitude
Unknown
Speed
Unknown
Apparent Right ascension
Unknown
Apparent Declination
Unknown
Sunlit
N/A
Visualization observer readout
Local Sidereal Time
19:59:13
Azimuth
Unknown
Elevation
Unknown
Doppler factor
Unknown
Orbital elements
Apogee altitude
574.807 km
Perigee altitude
570.203 km
Semi-major axis
6,950.642 km
Eccentricity
0.00033
Inclination
69.9977°
RAAN
285.6473°
Arg. of periapsis
273.4865°
True anomaly
86.62939°
Mean anomaly
86.5915°
Eccentric anomaly
86.61044°
Mean motion
3.74547 °/min
Orbital period
96.12 mins
BSTAR
0.0000094902
Loading maneuver chart data...
Computing Atmospheric mass density...
Loading historical data...
Loading historical data...
Loading historical data...
Loading historical data...
Loading historical data...
Loading historical data...
Loading historical data...

Documentation

Showing up to 5 results
|